timestamp,surface_pressure_avg,surface_temp_avg,battery_voltage,lat,long
2023-10-01 00:09:00+00:00,367.6011,11.9,11.93,47.84626,-54.09684
2023-10-01 00:19:00+00:00,373.9579,11.8,11.93,47.84626,-54.09684
2023-10-01 00:29:00+00:00,375.3995,11.8,11.93,47.84626,-54.09684
2023-10-01 00:39:00+00:00,371.8547,11.8,11.93,47.84626,-54.09684
2023-10-01 00:49:00+00:00,371.7263,11.8,11.93,47.84626,-54.09684
2023-10-01 00:59:00+00:00,375.0946,11.8,11.93,47.84626,-54.09684
2023-10-01 01:09:00+00:00,371.1647,11.75,11.93,47.84626,-54.09684
2023-10-01 01:19:00+00:00,365.0496,11.77,11.93,47.84626,-54.09684
2023-10-01 01:29:00+00:00,363.5864,11.79,11.93,47.84626,-54.09684
2023-10-01 01:39:00+00:00,361.7579,11.7,11.93,47.84626,-54.09684
2023-10-01 01:49:00+00:00,354.0363,11.7,11.93,47.84626,-54.09684
2023-10-01 01:59:00+00:00,346.8712,11.7,11.93,47.84626,-54.09684
2023-10-01 02:09:00+00:00,342.2847,11.7,11.93,47.84626,-54.09684
2023-10-01 02:19:00+00:00,337.7579,11.7,11.93,47.84626,-54.09684
2023-10-01 02:29:00+00:00,331.4480000000001,11.7,11.93,47.84626,-54.09684
2023-10-01 02:39:00+00:00,323.0096,11.7,11.93,47.84626,-54.09684
2023-10-01 02:49:00+00:00,316.5646,11.7,11.93,47.84626,-54.09684
2023-10-01 02:59:00+00:00,307.9981,11.7,11.93,47.84626,-54.09684
2023-10-01 03:09:00+00:00,296.4431,11.74,11.93,47.84626,-54.09684
2023-10-01 03:19:00+00:00,284.8547,11.74,11.93,47.84626,-54.09684
2023-10-01 03:29:00+00:00,277.188,11.74,11.93,47.84626,-54.09684
2023-10-01 03:39:00+00:00,267.5914,11.76,11.93,47.84626,-54.09684
2023-10-01 03:49:00+00:00,255.9565,11.77,11.93,47.84626,-54.09684
2023-10-01 03:59:00+00:00,246.5314,11.79,11.93,47.84626,-54.09684
2023-10-01 04:09:00+00:00,236.8714,11.8,11.93,47.84626,-54.09684
2023-10-01 04:19:00+00:00,223.7798,11.8,11.93,47.84626,-54.09684
2023-10-01 04:29:00+00:00,213.7881,11.8,11.93,47.84626,-54.09684
2023-10-01 04:39:00+00:00,206.1198,11.82,11.93,47.84626,-54.09684
2023-10-01 04:49:00+00:00,196.0515,11.86,11.93,47.84626,-54.09684
2023-10-01 04:59:00+00:00,186.6248,11.89,11.93,47.84626,-54.09684
2023-10-01 05:09:00+00:00,179.7881,11.9,11.93,47.84626,-54.09684
2023-10-01 05:19:00+00:00,175.1148,11.9,11.93,47.84626,-54.09684
2023-10-01 05:29:00+00:00,172.3265,11.9,11.93,47.84626,-54.09684
2023-10-01 05:39:00+00:00,167.5032,11.97,11.93,47.84626,-54.09684
2023-10-01 05:49:00+00:00,164.5548,12.0,11.93,47.84626,-54.09684
2023-10-01 05:59:00+00:00,164.1948,12.0,11.93,47.84626,-54.09684
2023-10-01 06:09:00+00:00,163.9798,12.0,11.93,47.84626,-54.09684
2023-10-01 06:19:00+00:00,165.4115,12.0,11.93,47.84626,-54.09684
2023-10-01 06:29:00+00:00,165.9949,12.03,11.93,47.84626,-54.09684
2023-10-01 06:39:00+00:00,166.4748,12.09,11.93,47.84626,-54.09684
2023-10-01 06:49:00+00:00,168.9281,12.1,11.93,47.84626,-54.09684
2023-10-01 06:59:00+00:00,171.7848,12.11,11.93,47.84626,-54.09684
2023-10-01 07:09:00+00:00,174.0798,12.18,11.93,47.84626,-54.09684
2023-10-01 07:19:00+00:00,178.5248,12.2,11.86,47.84626,-54.09684
2023-10-01 07:29:00+00:00,183.6648,12.2,11.86,47.84626,-54.09684
2023-10-01 07:39:00+00:00,185.8015,12.2,11.86,47.84626,-54.09684
2023-10-01 07:49:00+00:00,192.0248,12.21,11.86,47.84626,-54.09684
2023-10-01 07:59:00+00:00,200.5865,12.23,11.86,47.84626,-54.09684
2023-10-01 08:09:00+00:00,204.3648,12.28,11.86,47.84626,-54.09684
2023-10-01 08:19:00+00:00,208.7281,12.3,11.86,47.84626,-54.09684
2023-10-01 08:29:00+00:00,213.9498,12.3,11.86,47.84626,-54.09684
2023-10-01 08:39:00+00:00,218.2631,12.3,11.86,47.84626,-54.09684
2023-10-01 08:49:00+00:00,223.4081,12.3,11.86,47.84626,-54.09684
2023-10-01 08:59:00+00:00,228.2247,12.3,11.86,47.84626,-54.09684
2023-10-01 09:09:00+00:00,234.2131,12.3,11.86,47.84626,-54.09684
2023-10-01 09:19:00+00:00,241.1581,12.3,11.86,47.84626,-54.09684
2023-10-01 09:29:00+00:00,247.7097,12.3,11.86,47.84626,-54.09684
2023-10-01 09:39:00+00:00,252.6081,12.3,11.86,47.84626,-54.09684
2023-10-01 09:49:00+00:00,258.0381,12.3,11.86,47.84626,-54.09684
2023-10-01 09:59:00+00:00,265.7231,12.3,11.86,47.84626,-54.09684
2023-10-01 10:09:00+00:00,273.4464,12.3,11.86,47.84626,-54.09684
2023-10-01 10:19:01+00:00,280.1847,12.3,11.86,47.84626,-54.09684
2023-10-01 10:29:01+00:00,289.163,12.28,11.86,47.84626,-54.09684
2023-10-01 10:39:01+00:00,296.5547,12.27,11.86,47.84626,-54.09684
2023-10-01 10:49:01+00:00,303.0731,12.29,11.86,47.84626,-54.09684
2023-10-01 10:59:01+00:00,313.1281,12.3,11.86,47.84626,-54.09684
2023-10-01 11:09:01+00:00,324.693,12.3,11.86,47.84626,-54.09684
2023-10-01 11:19:01+00:00,333.3297,12.3,11.86,47.84626,-54.09684
2023-10-01 11:29:01+00:00,342.9012,12.3,11.86,47.84626,-54.09684
2023-10-01 11:39:01+00:00,351.5296,12.3,11.86,47.84626,-54.09684
2023-10-01 11:49:01+00:00,359.2579,12.3,11.86,47.84626,-54.09684
2023-10-01 11:59:01+00:00,365.6896,12.3,11.86,47.84626,-54.09684
2023-10-01 12:09:01+00:00,372.2029,12.3,11.86,47.84626,-54.09684
2023-10-01 12:19:00+00:00,377.3396,12.3,11.86,47.84626,-54.09684
2023-10-01 12:29:00+00:00,381.0762,12.3,11.86,47.84626,-54.09684
2023-10-01 12:39:00+00:00,386.0712,12.3,11.86,47.84626,-54.09684
2023-10-01 12:49:00+00:00,387.3094,12.3,11.86,47.84626,-54.09684
2023-10-01 12:59:00+00:00,386.4028,12.3,11.86,47.84626,-54.09684
2023-10-01 13:09:00+00:00,388.713,12.2,11.86,47.84626,-54.09684
2023-10-01 13:19:00+00:00,386.8997,12.19,11.93,47.84626,-54.09684
2023-10-01 13:29:00+00:00,380.6912,12.27,11.93,47.84626,-54.09684
2023-10-01 13:39:00+00:00,378.4396,12.3,11.93,47.84626,-54.09684
2023-10-01 13:49:00+00:00,376.7912,12.3,11.93,47.84626,-54.09684
2023-10-01 13:59:00+00:00,368.1512,12.3,11.93,47.84626,-54.09684
2023-10-01 14:09:00+00:00,358.668,12.34,11.93,47.84626,-54.09684
2023-10-01 14:19:00+00:00,357.0329,12.3,12.25,47.84626,-54.09684
2023-10-01 14:29:00+00:00,352.3479,12.3,12.25,47.84626,-54.09684
2023-10-01 14:39:00+00:00,343.5096,12.33,12.25,47.84626,-54.09684
2023-10-01 14:49:00+00:00,338.0829,12.32,12.25,47.84626,-54.09684
2023-10-01 14:59:00+00:00,333.3830000000001,12.3,12.25,47.84626,-54.09684
2023-10-01 15:09:00+00:00,325.0563,12.31,12.25,47.84626,-54.09684
2023-10-01 15:19:00+00:00,319.223,12.3,12.17,47.84626,-54.09684
2023-10-01 15:29:00+00:00,310.9014,12.3,12.17,47.84626,-54.09684
2023-10-01 15:39:00+00:00,300.3431,12.3,12.17,47.84626,-54.09684
2023-10-01 15:49:00+00:00,291.9313,12.3,12.17,47.84626,-54.09684
2023-10-01 15:59:00+00:00,283.7947,12.27,12.17,47.84626,-54.09684
2023-10-01 16:09:00+00:00,272.1281,12.19,12.17,47.84626,-54.09684
2023-10-01 16:19:01+00:00,261.263,12.2,12.25,47.84626,-54.09684
2023-10-01 16:29:01+00:00,250.7681,12.2,12.25,47.84626,-54.09684
2023-10-01 16:39:01+00:00,238.5698,12.29,12.25,47.84626,-54.09684
2023-10-01 16:49:01+00:00,225.6465,12.3,12.25,47.84626,-54.09684
2023-10-01 16:59:01+00:00,213.4514,12.37,12.25,47.84626,-54.09684
2023-10-01 17:09:01+00:00,204.1881,12.4,12.25,47.84626,-54.09684
2023-10-01 17:19:00+00:00,193.7065,12.4,12.17,47.84626,-54.09684
2023-10-01 17:29:00+00:00,183.8514,12.4,12.17,47.84626,-54.09684
2023-10-01 17:39:00+00:00,178.1398,12.4,12.17,47.84626,-54.09684
2023-10-01 17:49:00+00:00,171.9015,12.4,12.17,47.84626,-54.09684
2023-10-01 17:59:00+00:00,164.7998,12.4,12.17,47.84626,-54.09684
2023-10-01 18:09:00+00:00,160.1848,12.4,12.17,47.84626,-54.09684
2023-10-01 18:19:00+00:00,157.0848,12.43,12.09,47.84626,-54.09684
2023-10-01 18:29:00+00:00,153.5515,12.5,12.09,47.84626,-54.09684
2023-10-01 18:39:00+00:00,154.2249,12.51,12.09,47.84626,-54.09684
2023-10-01 18:49:00+00:00,156.9698,12.58,12.09,47.84626,-54.09684
2023-10-01 18:59:00+00:00,157.3998,12.6,12.09,47.84626,-54.09684
2023-10-01 19:09:00+00:00,158.7465,12.6,12.09,47.84626,-54.09684
2023-10-01 19:19:00+00:00,164.3181,12.6,12.01,47.84626,-54.09684
2023-10-01 19:29:00+00:00,168.2798,12.61,12.01,47.84626,-54.09684
2023-10-01 19:39:00+00:00,169.3682,12.6,12.01,47.84626,-54.09684
2023-10-01 19:49:00+00:00,173.2848,12.6,12.01,47.84626,-54.09684
2023-10-01 19:59:00+00:00,179.5581,12.6,12.01,47.84626,-54.09684
2023-10-01 20:09:00+00:00,184.3365,12.64,12.01,47.84626,-54.09684
2023-10-01 20:19:00+00:00,187.3514,12.69,12.01,47.84626,-54.09684
2023-10-01 20:29:00+00:00,192.7231,12.7,12.01,47.84626,-54.09684
2023-10-01 20:39:00+00:00,198.4615,12.7,12.01,47.84626,-54.09684
2023-10-01 20:49:00+00:00,202.9831,12.7,12.01,47.84626,-54.09684
2023-10-01 20:59:00+00:00,209.6014,12.73,12.01,47.84626,-54.09684
2023-10-01 21:09:00+00:00,215.9131,12.76,12.01,47.84626,-54.09684
2023-10-01 21:19:01+00:00,217.9031,12.76,11.93,47.84626,-54.09684
2023-10-01 21:29:01+00:00,221.3914,12.75,11.93,47.84626,-54.09684
2023-10-01 21:39:01+00:00,228.5781,12.72,11.93,47.84626,-54.09684
2023-10-01 21:49:01+00:00,235.2431,12.71,11.93,47.84626,-54.09684
2023-10-01 21:59:01+00:00,238.8781,12.79,11.93,47.84626,-54.09684
2023-10-01 22:09:01+00:00,242.9414,12.8,11.93,47.84626,-54.09684
2023-10-01 22:19:01+00:00,250.8831,12.8,11.93,47.84626,-54.09684
2023-10-01 22:29:01+00:00,258.7764,12.8,11.93,47.84626,-54.09684
2023-10-01 22:39:01+00:00,265.3381,12.8,11.93,47.84626,-54.09684
2023-10-01 22:49:01+00:00,273.0731,12.8,11.93,47.84626,-54.09684
2023-10-01 22:59:01+00:00,285.8064,12.8,11.93,47.84626,-54.09684
2023-10-01 23:09:01+00:00,294.6714,12.8,11.93,47.84626,-54.09684
2023-10-01 23:19:01+00:00,302.7581,12.8,11.93,47.84626,-54.09684
2023-10-01 23:29:01+00:00,313.983,12.8,11.93,47.84626,-54.09684
2023-10-01 23:39:01+00:00,325.8413,12.8,11.93,47.84626,-54.09684
2023-10-01 23:49:01+00:00,334.4263,12.8,11.93,47.84626,-54.09684
2023-10-01 23:59:01+00:00,339.7063,12.79,11.93,47.84626,-54.09684
